�������C�����ː����j�^�v���󋵏��
Date,Time,Cs137(Bq/L),Cs134(Bq/L),�S��(Bq/L)
2018/02/01,00:00,0.77,0.052,ND
2018/02/01,00:10,0.79,0.038,ND
2018/02/01,00:20,0.75,0.048,ND
2018/02/01,00:30,0.78,ND,ND
2018/02/01,00:40,0.73,0.028,ND
2018/02/01,00:50,0.71,0.028,ND
2018/02/01,01:00,0.73,0.029,ND
2018/02/01,01:10,0.72,0.036,ND
2018/02/01,01:20,0.73,0.033,ND
2018/02/01,01:30,0.74,ND,ND
2018/02/01,01:40,0.74,ND,ND
2018/02/01,01:50,0.69,0.029,ND
2018/02/01,02:00,0.68,0.031,ND
2018/02/01,02:10,0.68,0.030,ND
2018/02/01,02:20,0.68,0.030,ND
2018/02/01,02:30,0.69,0.037,ND
2018/02/01,02:40,0.70,0.027,ND
2018/02/01,02:50,0.74,ND,ND
2018/02/01,03:00,0.74,ND,ND
2018/02/01,03:10,0.73,ND,ND
2018/02/01,03:20,0.73,ND,ND
2018/02/01,03:30,0.72,ND,ND
2018/02/01,03:40,0.74,ND,ND
2018/02/01,03:50,0.73,0.029,ND
2018/02/01,04:00,0.76,ND,ND
2018/02/01,04:10,0.72,ND,ND
2018/02/01,04:20,0.70,ND,ND
2018/02/01,04:30,0.68,ND,ND
2018/02/01,04:40,0.67,ND,ND
2018/02/01,04:50,0.68,ND,ND
2018/02/01,05:00,0.69,ND,ND
2018/02/01,05:10,0.69,ND,ND
2018/02/01,05:20,0.71,ND,ND
2018/02/01,05:30,0.73,ND,ND
2018/02/01,05:40,0.73,ND,ND
2018/02/01,05:50,0.74,ND,ND
2018/02/01,06:00,0.76,ND,ND
2018/02/01,06:10,0.75,ND,ND
2018/02/01,06:20,0.76,ND,ND
2018/02/01,06:30,0.76,ND,ND
2018/02/01,06:40,0.75,ND,ND
2018/02/01,06:50,0.74,ND,ND
2018/02/01,07:00,0.76,ND,ND
2018/02/01,07:10,0.77,ND,ND
2018/02/01,07:20,0.76,ND,ND
2018/02/01,07:30,0.78,ND,ND
2018/02/01,07:40,0.79,ND,ND
2018/02/01,07:50,0.79,ND,ND
2018/02/01,08:00,0.76,0.027,ND
2018/02/01,08:10,0.81,ND,ND
2018/02/01,08:20,0.74,0.031,ND
2018/02/01,08:30,0.74,0.038,ND
2018/02/01,08:40,0.76,0.030,ND
2018/02/01,08:50,0.77,0.030,ND
2018/02/01,09:00,0.78,0.026,ND
2018/02/01,09:10,0.82,ND,ND
2018/02/01,09:20,0.83,ND,ND
2018/02/01,09:30,0.84,ND,ND
2018/02/01,09:40,0.82,ND,ND
2018/02/01,09:50,0.81,ND,ND
2018/02/01,10:00,0.81,ND,ND
2018/02/01,10:10,0.81,ND,ND
2018/02/01,10:20,0.79,ND,ND
2018/02/01,10:30,0.75,0.027,ND
2018/02/01,10:40,0.77,0.026,ND
2018/02/01,10:50,0.76,0.028,ND
2018/02/01,11:00,0.76,0.029,ND
2018/02/01,11:10,0.76,0.034,ND
2018/02/01,11:20,0.83,ND,ND
2018/02/01,11:30,0.84,ND,ND
2018/02/01,11:40,0.82,ND,ND
2018/02/01,11:50,0.81,ND,ND
2018/02/01,12:00,0.81,ND,ND
2018/02/01,12:10,0.80,ND,ND
2018/02/01,12:20,0.77,ND,ND
2018/02/01,12:30,0.75,ND,ND
2018/02/01,12:40,0.75,ND,ND
2018/02/01,12:50,0.74,ND,ND
2018/02/01,13:00,0.78,ND,ND
2018/02/01,13:10,0.71,ND,ND
2018/02/01,13:20,0.71,ND,ND
2018/02/01,13:30,0.72,ND,ND
2018/02/01,13:40,0.71,ND,ND
2018/02/01,13:50,0.71,ND,ND
2018/02/01,14:00,0.69,ND,ND
2018/02/01,14:10,0.70,ND,ND
2018/02/01,14:20,0.70,ND,ND
2018/02/01,14:30,0.69,ND,ND
2018/02/01,14:40,0.70,ND,ND
2018/02/01,14:50,0.67,ND,ND
2018/02/01,15:00,0.69,ND,ND
2018/02/01,15:10,0.67,ND,ND
2018/02/01,15:20,0.68,0.037,ND
2018/02/01,15:30,0.64,0.060,ND
2018/02/01,15:40,0.70,0.027,ND
2018/02/01,15:50,0.72,0.030,ND
2018/02/01,16:00,0.71,0.034,ND
2018/02/01,16:10,0.68,0.029,ND
2018/02/01,16:20,0.71,0.039,ND
2018/02/01,16:30,0.71,0.039,ND
2018/02/01,16:40,0.67,0.030,ND
2018/02/01,16:50,0.65,0.035,ND
2018/02/01,17:00,0.70,ND,ND
2018/02/01,17:10,0.69,ND,ND
2018/02/01,17:20,0.69,ND,ND
2018/02/01,17:30,0.70,ND,9.5
2018/02/01,17:40,0.68,ND,ND
2018/02/01,17:50,0.67,ND,8.8
2018/02/01,18:00,0.69,ND,8.8
2018/02/01,18:10,0.70,ND,9.5
2018/02/01,18:20,0.70,ND,ND
2018/02/01,18:30,0.71,ND,ND
2018/02/01,18:40,0.72,ND,ND
2018/02/01,18:50,0.74,ND,ND
2018/02/01,19:00,0.76,ND,ND
2018/02/01,19:10,0.78,ND,ND
2018/02/01,19:20,0.88,ND,ND
2018/02/01,19:30,0.89,ND,ND
2018/02/01,19:40,0.92,ND,ND
2018/02/01,19:50,0.91,ND,ND
2018/02/01,20:00,0.92,ND,ND
2018/02/01,20:10,0.87,0.041,ND
2018/02/01,20:20,0.85,ND,ND
2018/02/01,20:30,0.85,ND,ND
2018/02/01,20:40,0.86,ND,ND
2018/02/01,20:50,0.86,ND,ND
2018/02/01,21:00,0.85,ND,ND
2018/02/01,21:10,0.85,ND,ND
2018/02/01,21:20,0.87,ND,ND
2018/02/01,21:30,0.89,ND,ND
2018/02/01,21:40,0.83,0.026,ND
2018/02/01,21:50,0.85,0.032,ND
2018/02/01,22:00,0.85,0.037,ND
2018/02/01,22:10,0.84,0.033,ND
2018/02/01,22:20,0.83,0.065,11
2018/02/01,22:30,0.79,0.034,9.9
2018/02/01,22:40,0.78,0.037,9.7
2018/02/01,22:50,0.79,0.031,ND
2018/02/01,23:00,0.82,ND,9.2
2018/02/01,23:10,0.79,0.026,ND
2018/02/01,23:20,0.83,ND,ND
2018/02/01,23:30,0.85,ND,10
2018/02/01,23:40,0.85,ND,ND
2018/02/01,23:50,0.82,ND,ND
